Flag for U.S.A. Weather past 2 weeks in New York, New York, U.S.A.

Now
37 °F

Overcast.


Feels Like: 37 °F
Forecast: 20 / 36 °F
Wind: No wind

Location: New York City - Central Park

Current Time: Jan 30, 2015 at 4:46:36 AM

Latest Report: Jan 30, 2015 at 3:51 AM


Visibility: 10 mi

Pressure: 29.86 "Hg

Humidity: 67%

Dew point: 27 °F

Location of New YorkLocation

Historic Weather in New York — Graph

°F

New York temperature yesterday

Maximum temperature yesterday: 35 °F (at 7:51 PM)
Minimum temperature yesterday: 19 °F (at 7:51 AM)
Average temperature yesterday: 28 °F

Past Weeks' High & Low Weather Summary

 TemperatureHumidityPressure
High43 °F (Jan 16, 1:51 PM)93% (Jan 18, 1:51 PM)30.39 "Hg (Jan 18, 1:51 PM)
Low17 °F (Jan 17, 6:51 AM)25% (Jan 21, 3:51 PM)29.28 "Hg (Jan 24, 2:51 PM)
Average31 °F56%29.97 "Hg
* Reported Jan 15 2:51 AM — Jan 30 2:51 AM, New York, Weather by CustomWeather, © 2014

Note: Actual official high and low records may vary slightly from our data, if they occured in-between our weather recording intervals... More about our weather records

Advertising

New York weather history for previous 24 hours

 ConditionsComfort  
Time TempWeatherWind HumidityBarometerVisibility
2:51 AM
Jan 30
34 °FMostly cloudy.5 mph82%29.89 "Hg5 mi
1:58 AM33 °FLight snow. Overcast.8 mph82%29.94 "Hg1 mi
12:51 AM32 °FLight snow. Ice fog.8 mph85%29.95 "Hg1 mi
12:01 AM32 °FLight snow. Mostly cloudy.3 mph82%30.00 "Hg1 mi
10:51 PM
Jan 29
35 °FMostly cloudy.3 mph61%30.02 "Hg10 mi
9:51 PM35 °FOvercast.8 mph64%30.05 "Hg10 mi
8:51 PM35 °FMostly cloudy.3 mph64%30.05 "Hg10 mi
7:51 PM35 °FMostly cloudy.12 mph67%30.07 "Hg10 mi
6:51 PM34 °FPassing clouds.N/A67%30.10 "Hg10 mi
5:51 PM32 °FPartly cloudy.3 mph69%30.12 "Hg10 mi
4:51 PM31 °FOvercast.6 mph64%30.13 "Hg10 mi
3:51 PM30 °FPartly sunny.N/A59%30.15 "Hg10 mi
2:51 PM31 °FPartly sunny.5 mph52%30.19 "Hg10 mi
1:51 PM33 °FScattered clouds.5 mph41%30.19 "Hg10 mi
12:51 PM32 °FSunny.No wind38%30.22 "Hg10 mi
11:51 AM31 °FSunny.3 mph35%30.27 "Hg10 mi
10:51 AM29 °FSunny.3 mph36%30.30 "Hg10 mi
9:51 AM27 °FSunny.5 mph39%30.31 "Hg10 mi
8:51 AM22 °FSunny.No wind46%30.32 "Hg10 mi
7:51 AM19 °FSunny.5 mph47%30.32 "Hg10 mi
6:51 AM20 °FClear.3 mph48%30.31 "Hg10 mi
5:51 AM20 °FClear.No wind45%30.31 "Hg10 mi
4:51 AM21 °FClear.5 mph43%30.29 "Hg10 mi
Weather by CustomWeather, © 2014

See weather overviewHow to use our weather pages